Date String (YYYY-MM-DD hh:mm:ss) UTC,Instrument flags,absolute air pressure of the measurement (hPa),sample flow rate (lpm),inlet stack bypass flow (lpm),air temperature of the measurement (°C),ambient temperature measured by the external sensor (°C),aerosol sample conditioner tube jacket temperature (°C),OPC LED temperature (°C),internal box temperature (°C),relative humidity of the measurement (%),span deviation,mass concentration of particles derived from Lorenz-Mie calculation of OPC scattering (μg/m³),mass concentration of particles derived from Lorenz-Mie calculation of OPC scattering (μg/m³),mass concentration of particles derived from Lorenz-Mie calculation of OPC scattering (μg/m³)
DateTimeUTC,F1_M11,P_M11,Q1_M11,Q2_M11,T1_M11,T2_M11,T3_M11,T4_M11,T5_M11,U1_M11,ZSPAN_M11,X0_M11,X2_M11,X1_M11
2023-06-20 03:00:00,SystemResetWarning,0824.4,5.01,000.00,029.3,024.5,000.0,037.7,030.8,23.7,0000.0,0018.06,0004.62,0003.54
2023-06-20 03:01:00,SystemResetWarning,0824.4,5.01,000.00,029.3,024.0,000.0,037.7,030.8,23.7,0000.0,0017.77,0004.62,0003.55
2023-06-20 03:02:00,SystemResetWarning,0824.4,5.00,000.00,029.2,024.4,000.0,037.6,030.5,23.8,0000.0,0017.47,0004.62,0003.55
2023-06-20 03:03:00,SystemResetWarning,0824.4,5.01,000.00,029.1,024.9,000.0,037.6,030.4,24.3,0000.0,0017.22,0004.60,0003.56
2023-06-20 03:04:00,SystemResetWarning,0824.4,5.00,000.00,029.1,025.4,000.0,037.7,030.4,24.1,0000.0,0018.20,0004.62,0003.57
2023-06-20 03:05:00,SystemResetWarning,0824.5,5.00,000.00,029.1,026.0,000.0,037.6,030.5,23.8,0000.0,0017.62,0004.71,0003.58
2023-06-20 03:06:00,SystemResetWarning,0824.5,5.00,000.00,029.1,026.4,000.0,037.7,030.6,23.9,0000.0,0016.99,0004.76,0003.58
2023-06-20 03:07:00,SystemResetWarning,0824.5,4.99,000.00,029.1,026.8,000.0,037.7,030.7,24.1,0000.0,0017.51,0004.75,0003.58
2023-06-20 03:08:00,SystemResetWarning,0824.5,4.99,000.00,029.1,027.1,000.0,037.7,030.8,23.6,0000.0,0017.53,0004.82,0003.60
2023-06-20 03:09:00,SystemResetWarning,0824.5,5.01,000.00,029.2,027.4,000.0,037.7,030.8,23.5,0000.0,0016.89,0004.85,0003.61
2023-06-20 03:10:00,SystemResetWarning,0824.5,5.01,000.00,029.2,027.6,000.0,037.7,030.9,23.2,0000.0,0016.39,0004.93,0003.62
2023-06-20 03:11:00,SystemResetWarning,0824.6,4.99,000.00,029.3,027.8,000.0,037.7,030.9,22.8,0000.0,0016.99,0005.01,0003.64
2023-06-20 03:12:00,SystemResetWarning,0824.7,4.99,000.00,029.3,028.0,000.0,037.8,031.0,22.6,0000.0,0017.91,0005.01,0003.63
2023-06-20 03:13:00,SystemResetWarning,0824.7,5.00,000.00,029.4,028.0,000.0,037.8,031.1,22.2,0000.0,0020.30,0005.01,0003.63
2023-06-20 03:14:00,SystemResetWarning,0824.7,4.99,000.00,029.4,026.4,000.0,037.7,031.0,22.4,0000.0,0020.07,0004.98,0003.61
2023-06-20 03:15:00,SystemResetWarning,0824.6,5.01,000.00,029.4,025.1,000.0,037.7,031.0,22.5,0000.0,0019.89,0004.94,0003.59
2023-06-20 03:16:00,SystemResetWarning,0824.6,5.02,000.00,029.3,025.1,000.0,037.7,030.8,22.1,0000.0,0019.30,0004.89,0003.58
2023-06-20 03:17:00,SystemResetWarning,0824.6,4.99,000.00,029.2,025.5,000.0,037.7,030.6,22.0,0000.0,0019.39,0004.84,0003.58
2023-06-20 03:18:00,SystemResetWarning,0824.6,5.00,000.00,029.2,025.9,000.0,037.7,030.6,22.1,0000.0,0019.10,0004.83,0003.57
2023-06-20 03:19:00,SystemResetWarning,0824.6,5.01,000.00,029.2,026.4,000.0,037.7,030.7,22.4,0000.0,0018.63,0004.83,0003.55
2023-06-20 03:20:00,SystemResetWarning,0824.7,4.99,000.00,029.2,026.8,000.0,037.7,030.8,22.5,0000.0,0017.86,0004.84,0003.54
2023-06-20 03:21:00,SystemResetWarning,0824.7,4.99,000.00,029.3,027.1,000.0,037.8,030.8,22.4,0000.0,0018.11,0004.79,0003.53
2023-06-20 03:22:00,SystemResetWarning,0824.7,5.01,000.00,029.3,027.4,000.0,037.8,030.9,22.6,0000.0,0017.98,0004.76,0003.52
2023-06-20 03:23:00,SystemResetWarning,0824.7,5.01,000.00,029.3,027.6,000.0,037.8,031.0,22.5,0000.0,0016.70,0004.78,0003.53
2023-06-20 03:24:00,SystemResetWarning,0824.7,5.00,000.00,029.4,027.8,000.0,037.8,031.0,22.2,0000.0,0014.34,0004.71,0003.52
2023-06-20 03:25:00,SystemResetWarning,0824.7,4.99,000.00,029.4,027.7,000.0,037.8,031.1,21.7,0000.0,0014.99,0004.73,0003.52
2023-06-20 03:26:00,SystemResetWarning,0824.7,5.00,000.00,029.4,025.8,000.0,037.8,031.0,21.2,0000.0,0016.90,0004.76,0003.54
2023-06-20 03:27:00,SystemResetWarning,0824.7,5.00,000.00,029.4,025.0,000.0,037.7,030.9,21.7,0000.0,0017.29,0004.73,0003.54
2023-06-20 03:28:00,SystemResetWarning,0824.7,5.01,000.00,029.3,025.2,000.0,037.7,030.7,21.5,0000.0,0017.57,0004.71,0003.54
2023-06-20 03:29:00,SystemResetWarning,0824.7,5.01,000.00,029.2,025.6,000.0,037.7,030.6,21.4,0000.0,0017.50,0004.69,0003.54
2023-06-20 03:30:00,SystemResetWarning,0824.7,5.00,000.00,029.2,026.1,000.0,037.8,030.6,19.4,0000.0,0017.35,0004.65,0003.55
2023-06-20 03:31:00,SystemResetWarning,0824.7,5.00,000.00,029.2,026.5,000.0,037.8,030.7,18.7,0000.0,0018.08,0004.63,0003.55
2023-06-20 03:32:00,SystemResetWarning,0824.7,5.00,000.00,029.3,026.9,000.0,037.8,030.8,17.6,0000.0,0017.47,0004.61,0003.53
2023-06-20 03:33:00,SystemResetWarning,0824.7,5.00,000.00,029.3,027.2,000.0,037.8,030.8,15.9,0000.0,0016.98,0004.54,0003.50
2023-06-20 03:34:00,SystemResetWarning,0824.7,5.00,000.00,029.3,027.5,000.0,037.8,030.9,15.3,0000.0,0016.76,0004.43,0003.46
2023-06-20 03:35:00,SystemResetWarning,0824.8,4.99,000.00,029.4,027.7,000.0,037.8,031.0,14.7,0000.0,0016.90,0004.38,0003.41
2023-06-20 03:36:00,SystemResetWarning,0824.8,5.02,000.00,029.4,027.9,000.0,037.8,031.1,15.2,0000.0,0015.07,0004.28,0003.35
2023-06-20 03:37:00,SystemResetWarning,0824.8,4.99,000.00,029.5,027.3,000.0,037.8,031.2,15.1,0000.0,0012.78,0004.16,0003.27
2023-06-20 03:38:00,SystemResetWarning,0824.8,4.99,000.00,029.4,025.4,000.0,037.8,031.1,16.8,0000.0,0011.91,0004.07,0003.22
2023-06-20 03:39:00,SystemResetWarning,0824.8,5.01,000.00,029.4,025.0,000.0,037.8,031.0,17.0,0000.0,0011.20,0003.97,0003.15
2023-06-20 03:40:00,SystemResetWarning,0824.8,5.01,000.00,029.3,025.3,000.0,037.8,030.7,15.2,0000.0,0011.03,0003.93,0003.11
2023-06-20 03:41:00,SystemResetWarning,0824.8,4.99,000.00,029.3,025.8,000.0,037.8,030.7,14.4,0000.0,0010.78,0003.86,0003.07
2023-06-20 03:42:00,SystemResetWarning,0824.8,5.00,000.00,029.3,026.2,000.0,037.8,030.7,14.0,0000.0,0009.78,0003.76,0002.96
2023-06-20 03:43:00,SystemResetWarning,0824.9,5.01,000.00,029.3,026.6,000.0,037.8,030.8,14.2,0000.0,0009.07,0003.62,0002.85
2023-06-20 03:44:00,SystemResetWarning,0824.9,4.99,000.00,029.3,027.0,000.0,037.8,030.9,14.2,0000.0,0008.71,0003.52,0002.74
2023-06-20 03:45:00,SystemResetWarning,0824.9,5.00,000.00,029.3,027.3,000.0,037.8,030.9,14.2,0000.0,0009.13,0003.48,0002.66
2023-06-20 03:46:00,SystemResetWarning,0824.9,5.00,000.00,029.4,027.6,000.0,037.8,031.0,14.0,0000.0,0008.54,0003.41,0002.60
2023-06-20 03:47:00,SystemResetWarning,0824.9,5.00,000.00,029.4,027.8,000.0,037.9,031.1,13.4,0000.0,0008.26,0003.36,0002.56
2023-06-20 03:48:00,SystemResetWarning,0824.9,5.01,000.00,029.4,028.0,000.0,037.9,031.1,13.3,0000.0,0007.95,0003.36,0002.54
2023-06-20 03:49:00,SystemResetWarning,0824.9,4.97,000.00,029.5,026.8,000.0,037.8,031.1,12.5,0000.0,0008.01,0003.35,0002.49
2023-06-20 03:50:00,SystemResetWarning,0824.8,5.01,000.00,029.4,025.2,000.0,037.8,031.0,13.3,0000.0,0008.23,0003.34,0002.44
2023-06-20 03:51:00,SystemResetWarning,0824.9,5.02,000.00,029.4,025.3,000.0,037.8,030.9,13.6,0000.0,0008.52,0003.24,0002.35
2023-06-20 03:52:00,SystemResetWarning,0824.9,4.99,000.00,029.3,025.6,000.0,037.8,030.7,12.9,0000.0,0009.15,0003.17,0002.26
2023-06-20 03:53:00,SystemResetWarning,0824.9,4.99,000.00,029.3,026.0,000.0,037.8,030.7,13.5,0000.0,0009.88,0003.15,0002.23
2023-06-20 03:54:00,SystemResetWarning,0824.9,5.00,000.00,029.3,026.4,000.0,037.8,030.7,14.2,0000.0,0010.85,0003.16,0002.23
2023-06-20 03:55:00,SystemResetWarning,0824.9,5.01,000.00,029.3,026.8,000.0,037.8,030.8,14.2,0000.0,0011.26,0003.18,0002.23
2023-06-20 03:56:00,SystemResetWarning,0824.9,5.00,000.00,029.3,027.2,000.0,037.8,030.9,13.6,0000.0,0011.42,0003.21,0002.24
2023-06-20 03:57:00,SystemResetWarning,0824.9,4.99,000.00,029.4,027.4,000.0,037.9,031.0,13.4,0000.0,0011.14,0003.21,0002.26
2023-06-20 03:58:00,SystemResetWarning,0824.9,5.00,000.00,029.4,027.7,000.0,037.9,031.0,13.7,0000.0,0011.27,0003.22,0002.28
2023-06-20 03:59:00,SystemResetWarning,0824.9,5.00,000.00,029.4,027.9,000.0,037.9,031.1,13.0,0000.0,0011.70,0003.22,0002.27
